Location: Unspecified
(0.0000°N, 0.0000°E)
Time: 05:30:31
(UTC+00:00)

Vanguard 3 - Visible Passes

Search period start: 10 February 2026 00:00
Search period end: 20 February 2026 00:00
Orbit: 507 x 3206 km, 33.3° (Epoch: 9 February)

Date Brightness Start Highest point End Pass type
(mag) Time Alt. Az. Time Alt. Az. Time Alt. Az.
10 Feb 10.2 02:09:17 25° ESE 02:09:17 25° ESE 02:14:22 10° ESE visible
10 Feb 9.1 04:13:13 41° WSW 04:16:11 49° SSW 04:31:16 10° SE visible
11 Feb 9.3 02:56:19 49° SE 02:56:19 49° SE 03:06:07 10° SE visible
11 Feb 9.9 05:00:14 16° WSW 05:07:53 31° SSW 05:21:51 10° SSE visible
12 Feb 10.7 01:39:25 13° ESE 01:39:25 13° ESE 01:40:37 10° ESE visible
12 Feb 9.1 03:43:20 45° SSW 03:43:33 45° SSW 03:56:57 10° SE visible
13 Feb 10.0 02:26:23 29° SE 02:26:23 29° SE 02:32:07 10° SE visible
13 Feb 9.8 04:30:18 21° SW 04:35:08 28° SSW 04:47:21 10° SSE visible
14 Feb 9.5 03:13:20 36° S 03:13:20 36° S 03:22:43 10° SE visible
14 Feb 10.4 05:19:46 10° SW 05:27:37 19° SSW 05:37:56 10° SSE visible
15 Feb 10.6 01:56:21 16° SE 01:56:21 16° SE 01:58:19 10° SE visible
15 Feb 9.8 04:00:16 22° SW 04:02:33 24° SSW 04:12:52 10° SSE visible
16 Feb 10.0 02:43:15 24° SSE 02:43:15 24° SSE 02:48:37 10° SE visible
16 Feb 10.4 04:48:31 10° SW 04:54:54 16° S 05:03:08 10° SSE visible
17 Feb 10.0 03:30:08 20° SSW 03:30:09 20° SSW 03:38:23 10° SSE visible
17 Feb 10.8 05:42:23 10° SSW 05:48:11 13° S 05:54:58 10° SSE visible
18 Feb 10.5 02:13:06 14° SSE 02:13:06 14° SSE 02:14:42 10° SSE visible
18 Feb 10.4 04:17:39 10° SW 04:22:20 14° S 04:28:04 10° SSE visible
19 Feb 10.3 02:59:57 15° S 02:59:57 15° S 03:03:56 10° SSE visible
19 Feb 10.8 05:11:54 10° SSW 05:15:24 11° S 05:19:19 10° SSE visible
